Regional Weather Roundup
Issued by NWS Midland/Odessa, TX

Skip options and go directly to product.
Home | Oldest Version | Previous Version | Current Version | All | Graphics & Text | Save Text | Print | Product List | Glossary On

Skip product version selection by date and time.   
879
ASUS44 KMAF 301810
RWRMAF
MIDLAND AREA WEATHER ROUNDUP
NATIONAL WEATHER SERVICE MIDLAND TX
100 PM CDT THU JUL 30 2015

...IN SOUTHWEST TEXAS AND SOUTHEAST NEW MEXICO...

CITY           SKY/WX    TMP DP  RH WIND       PRES   REMARKS
ALPINE         SUNNY     86  55  34 E9        30.34F
ANDREWS        FAIR      92  57  30 NE5       30.23F
ARTESIA        SUNNY     84  61  45 N8        30.26F
BIG SPRING     SUNNY     90  56  31 CALM      30.21F
CARLSBAD         N/A     88  60  38 NW8       30.22F
DRYDEN           N/A     96  61  31 SE8       30.13F
FORT STOCKTON  MOSUNNY   95  55  26 E12       30.19F
GUAD PASS      SUNNY     79  61  53 E20       30.36F
HOBBS          SUNNY     86  57  37 E8        30.27S
MARFA          SUNNY     84  55  37 NE8G16    30.32F
MIDLAND AIRPK  PTSUNNY   94  53  25 CALM      30.20F
MIDLAND INTL   MOSUNNY   94  56  27 E9        30.19F
ODESSA         MOSUNNY   94  52  24 SE14      30.21F
PECOS          SUNNY     92  55  28 NE8       30.17F
PRESIDIO       FAIR      92  57  30 S7        30.14F
SEMINOLE       MOSUNNY   89  60  37 NE12      30.26S HAZE
SNYDER         SUNNY     91  65  42 NW5       30.20F
WINK           SUNNY     97  54  23 E8        30.17F
$$
...OTHER STATIONS IN TEXAS...

CITY           SKY/WX    TMP DP  RH WIND       PRES   REMARKS
ABILENE        SUNNY     95  64  35 SW7       30.16F
AMARILLO       MOSUNNY   83  66  56 NE15G21   30.31S
AUSTIN         MOSUNNY   95  61  32 VRB6      30.08F
BROWNSVILLE    MOSUNNY   94  72  48 E10       30.04F HX 102
CORPUS CHRISTI PTSUNNY   95  67  39 VRB7      30.06F
DALLAS FTW     MOSUNNY   99  64  31 VRB6      30.09F HX 101
DEL RIO        SUNNY     97  59  28 SE9       30.08F
EL PASO        MOSUNNY   78  64  61 N12       30.25F
HOUSTON INT    PTSUNNY   97  71  42 NW8       30.05F HX 104
LUBBOCK        MOSUNNY   88  66  48 NE9       30.25F
SAN ANGELO     SUNNY     96  59  29 SE3       30.15F
SAN ANTONIO    MOSUNNY   93  63  36 S3        30.11F
WACO           SUNNY     99  63  30 E5        30.08F HX 101
WICHITA FALLS  NOT AVBL
$$
...OTHER LOCATIONS IN NEW MEXICO...

CITY           SKY/WX    TMP DP  RH WIND       PRES   REMARKS
ALAMAGORDO     PTSUNNY   81  61  50 NW9       30.27R
ALBUQUERQUE    PTSUNNY   75  59  57 VRB7      30.39S
CANNON AFB     MOSUNNY   80  61  53 NE5       30.33S
CLOVIS         MOSUNNY   81  61  50 NE10      30.34R
HOLLOMAN AFB   NOT AVBL
ROSWELL        SUNNY     85  62  46 NE9       30.26F
RUIDOSO          N/A    N/A N/A N/A MISG        N/A
SANTA FE       CLOUDY    66  56  70 N6        30.46S
TRUTH OR CONSE MOSUNNY   74  61  63 NE7       30.33F
TUCUMCARI      MOSUNNY   78  59  51 W3        30.32S
$$

USA.gov is the U.S. government's official web portal to all federal, state and local government web resources and services.